Location: �terpigny
(49.8910°N, 2.9249°E)
Time: 19:52:00
(UTC+00:00)

Gurwin Techsat 1B - Pass Details

Date: 29 June 2022
Orbit: 812 x 813 km, 98.8° (Epoch: 16 August)

Event Time Altitude Azimuth Distance (km) Brightness Sun altitude
Rises 01:05:11 0° 28° (NNE) 3,348 13.6 -15.1°
Reaches altitude 10° 01:08:22 10° 47° (NE) 2,410 12.0 -14.9°
Maximum altitude 01:11:51 18° 89° (E) 1,930 10.8 -14.7°
Drops below altitude 10° 01:15:19 10° 130° (SE) 2,398 10.9 -14.6°
Enters shadow 01:17:34 - 145° (SE) 3,036 11.3 -14.4°
